| time (UTC) | temp F | wind direction | speed MPH | gust MPH | rain 1hr in | rain 24hr in | rain mn in | humidity % | barometer mb |
| 20260502161506 | 53 | 360 | 2.0 | 6.0 | 0.00 | 0.07 | 0.01 | 41 | 1014.6 |
| 20260502161003 | 53 | 5 | 1.0 | 8.0 | 0.00 | 0.07 | 0.01 | 41 | 1014.8 |
| 20260502160503 | 53 | 316 | 3.0 | 9.0 | 0.00 | 0.07 | 0.01 | 42 | 1014.7 |
| 20260502152102 | 51 | 22 | 2.0 | 10.0 | 0.00 | 0.07 | 0.01 | 46 | 1014.9 |
| 20260502151605 | 51 | 257 | 5.0 | 9.0 | 0.00 | 0.07 | 0.01 | 44 | 1014.9 |
| 20260502151054 | 50 | 198 | 5.0 | 10.0 | 0.00 | 0.07 | 0.01 | 47 | 1014.8 |
| 20260502150553 | 50 | 258 | 3.0 | 8.0 | 0.00 | 0.07 | 0.01 | 47 | 1014.8 |
| 20260502130538 | 46 | 234 | 4.0 | 8.0 | 0.00 | 0.07 | 0.01 | 70 | 1015.2 |
| 20260502123530 | 44 | 263 | 4.0 | 10.0 | 0.00 | 0.07 | 0.01 | 81 | 1015.2 |
| 20260502123034 | 43 | 265 | 3.0 | 11.0 | 0.00 | 0.07 | 0.01 | 83 | 1015.2 |
| 20260502122528 | 43 | 303 | 7.0 | 11.0 | 0.00 | 0.07 | 0.01 | 84 | 1015.1 |
| 20260502122027 | 42 | 252 | 2.0 | 7.0 | 0.00 | 0.07 | 0.01 | 86 | 1015.1 |
| 20260502121531 | 42 | 322 | 3.0 | 8.0 | 0.00 | 0.07 | 0.01 | 87 | 1015.1 |
| 20260502121026 | 42 | 293 | 4.0 | 9.0 | 0.00 | 0.07 | 0.01 | 87 | 1015.0 |
| 20260502120526 | 42 | 350 | 4.0 | 9.0 | 0.00 | 0.07 | 0.01 | 88 | 1015.1 |
| 20260502115525 | 41 | 273 | 0.0 | 8.0 | 0.00 | 0.07 | 0.01 | 88 | 1015.1 |
| 20260502115025 | 41 | 246 | 3.0 | 8.0 | 0.00 | 0.07 | 0.01 | 88 | 1015.2 |
| 20260502114524 | 41 | 273 | 0.0 | 4.0 | 0.00 | 0.07 | 0.01 | 88 | 1015.1 |
| 20260502114025 | 41 | 227 | 0.0 | 3.0 | 0.00 | 0.07 | 0.01 | 88 | 1015.2 |
| 20260502113524 | 41 | 221 | 0.0 | 0.0 | 0.00 | 0.07 | 0.01 | 88 | 1015.2 |
| 20260502113024 | 41 | 218 | 0.0 | 0.0 | 0.00 | 0.07 | 0.01 | 88 | 1015.3 |
| 20260502112523 | 41 | 218 | 0.0 | 0.0 | 0.00 | 0.07 | 0.01 | 88 | 1015.2 |
| 20260502112022 | 41 | 218 | 0.0 | 0.0 | 0.00 | 0.07 | 0.01 | 88 | 1015.2 |
| 20260502111522 | 41 | 218 | 0.0 | 0.0 | 0.00 | 0.07 | 0.01 | 88 | 1015.1 |
| 20260502111021 | 41 | 218 | 0.0 | 0.0 | 0.00 | 0.07 | 0.01 | 88 | 1015.1 |
| 20260502110520 | 41 | 218 | 0.0 | 0.0 | 0.00 | 0.07 | 0.01 | 88 | 1015.0 |
| 20260502110020 | 41 | 218 | 0.0 | 0.0 | 0.00 | 0.07 | 0.01 | 88 | 1014.8 |
| 20260502105520 | 41 | 218 | 0.0 | 0.0 | 0.00 | 0.07 | 0.01 | 88 | 1014.7 |
| 20260502105018 | 41 | 218 | 0.0 | 0.0 | 0.00 | 0.07 | 0.01 | 88 | 1014.7 |
| 20260502104519 | 41 | 218 | 0.0 | 0.0 | 0.00 | 0.07 | 0.01 | 88 | 1014.7 |
| 20260502104018 | 41 | 218 | 0.0 | 0.0 | 0.00 | 0.07 | 0.01 | 88 | 1014.7 |
| 20260502103518 | 41 | 218 | 0.0 | 0.0 | 0.00 | 0.07 | 0.01 | 88 | 1014.6 |
| 20260502103017 | 41 | 218 | 0.0 | 0.0 | 0.00 | 0.07 | 0.01 | 88 | 1014.6 |
| 20260502102517 | 40 | 218 | 0.0 | 0.0 | 0.00 | 0.07 | 0.01 | 87 | 1014.6 |
| 20260502102017 | 40 | 218 | 0.0 | 0.0 | 0.00 | 0.07 | 0.01 | 87 | 1014.6 |
| 20260502101533 | 40 | 218 | 0.0 | 0.0 | 0.00 | 0.07 | 0.01 | 87 | 1014.6 |
| 20260502101015 | 40 | 218 | 0.0 | 0.0 | 0.00 | 0.07 | 0.01 | 87 | 1014.6 |
| 20260502100520 | 40 | 218 | 0.0 | 0.0 | 0.00 | 0.07 | 0.01 | 87 | 1014.6 |
| 20260502091509 | 41 | 218 | 0.0 | 0.0 | 0.00 | 0.07 | 0.01 | 87 | 1014.1 |
| 20260502091007 | 41 | 218 | 0.0 | 0.0 | 0.00 | 0.07 | 0.01 | 87 | 1014.1 |
| 20260502090507 | 41 | 218 | 0.0 | 0.0 | 0.00 | 0.07 | 0.01 | 87 | 1014.1 |
| 20260502071058 | 42 | 218 | 0.0 | 0.0 | 0.00 | 0.07 | 0.01 | 87 | 1013.7 |
| 20260502070558 | 42 | 218 | 0.0 | 0.0 | 0.00 | 0.07 | 0.01 | 87 | 1013.7 |
| 20260502070112 | 42 | 218 | 0.0 | 0.0 | 0.00 | 0.07 | 0.01 | 87 | 1013.7 |
| 20260502065556 | 42 | 218 | 0.0 | 0.0 | 0.00 | 0.07 | 0.01 | 87 | 1013.7 |
| 20260502065057 | 42 | 218 | 0.0 | 0.0 | 0.00 | 0.07 | 0.01 | 87 | 1013.6 |
| 20260502064556 | 42 | 218 | 0.0 | 0.0 | 0.00 | 0.07 | 0.01 | 87 | 1013.6 |
| 20260502064056 | 42 | 218 | 0.0 | 3.0 | 0.00 | 0.07 | 0.01 | 87 | 1013.5 |
| 20260502063656 | 43 | 218 | 0.0 | 4.0 | 0.00 | 0.07 | 0.01 | 87 | 1013.6 |
| 20260502063057 | 43 | 249 | 0.0 | 4.0 | 0.00 | 0.07 | 0.01 | 87 | 1013.5 |
| 20260502062554 | 43 | 232 | 0.0 | 3.0 | 0.00 | 0.07 | 0.01 | 87 | 1013.6 |
| 20260502062052 | 43 | 232 | 0.0 | 2.0 | 0.00 | 0.07 | 0.01 | 87 | 1013.5 |
| 20260502061553 | 43 | 232 | 0.0 | 2.0 | 0.00 | 0.07 | 0.01 | 87 | 1013.6 |
| 20260502061051 | 43 | 232 | 0.0 | 4.0 | 0.00 | 0.07 | 0.01 | 87 | 1013.7 |
| 20260502060555 | 43 | 234 | 0.0 | 4.0 | 0.00 | 0.07 | 0.01 | 87 | 1013.7 |
| 20260502060051 | 43 | 236 | 0.0 | 4.0 | 0.00 | 0.07 | 0.01 | 87 | 1013.6 |
| 20260502055550 | 43 | 237 | 0.0 | 6.0 | 0.00 | 0.07 | 0.01 | 87 | 1013.6 |
| 20260502055050 | 44 | 237 | 2.0 | 6.0 | 0.00 | 0.07 | 0.01 | 87 | 1013.6 |
| 20260502054549 | 44 | 261 | 1.0 | 5.0 | 0.00 | 0.07 | 0.01 | 87 | 1013.7 |
| 20260502054048 | 44 | 271 | 1.0 | 5.0 | 0.00 | 0.07 | 0.01 | 87 | 1013.7 |
| 20260502053546 | 44 | 261 | 0.0 | 8.0 | 0.00 | 0.07 | 0.01 | 87 | 1013.6 |
| 20260502053054 | 44 | 346 | 2.0 | 11.0 | 0.00 | 0.07 | 0.01 | 87 | 1013.5 |
| 20260502052545 | 44 | 257 | 2.0 | 4.0 | 0.00 | 0.07 | 0.01 | 87 | 1013.4 |
| 20260502052045 | 44 | 286 | 0.0 | 2.0 | 0.01 | 0.07 | 0.01 | 87 | 1013.3 |
| 20260502051557 | 45 | 294 | 0.0 | 3.0 | 0.01 | 0.07 | 0.01 | 87 | 1013.2 |
| 20260502051044 | 45 | 300 | 0.0 | 3.0 | 0.01 | 0.07 | 0.01 | 87 | 1013.2 |
| 20260502050544 | 45 | 227 | 0.0 | 4.0 | 0.01 | 0.07 | 0.01 | 87 | 1013.3 |
| 20260502050044 | 45 | 227 | 1.0 | 4.0 | 0.01 | 0.07 | 0.01 | 87 | 1013.3 |
| 20260502045543 | 45 | 250 | 1.0 | 3.0 | 0.01 | 0.07 | 0.01 | 87 | 1013.3 |
| 20260502045048 | 45 | 238 | 0.0 | 4.0 | 0.01 | 0.07 | 0.01 | 87 | 1013.4 |
| 20260502044544 | 45 | 237 | 0.0 | 4.0 | 0.01 | 0.07 | 0.01 | 86 | 1013.5 |
| 20260502044043 | 45 | 222 | 2.0 | 4.0 | 0.01 | 0.07 | 0.01 | 86 | 1013.6 |
| 20260502043542 | 45 | 210 | 0.0 | 5.0 | 0.01 | 0.07 | 0.01 | 86 | 1013.6 |
| 20260502043041 | 45 | 229 | 0.0 | 5.0 | 0.01 | 0.07 | 0.01 | 86 | 1013.6 |
| 20260502042544 | 45 | 217 | 1.0 | 6.0 | 0.01 | 0.07 | 0.01 | 86 | 1013.6 |
| 20260502042040 | 45 | 197 | 0.0 | 6.0 | 0.00 | 0.06 | 0.00 | 86 | 1013.5 |
| 20260502041600 | 45 | 234 | 1.0 | 5.0 | 0.00 | 0.06 | 0.00 | 86 | 1013.4 |
| 20260502041040 | 45 | 189 | 2.0 | 5.0 | 0.00 | 0.06 | 0.00 | 86 | 1013.3 |
| 20260502040536 | 45 | 248 | 0.0 | 4.0 | 0.00 | 0.06 | 0.00 | 86 | 1013.3 |
| 20260502040039 | 46 | 248 | 1.0 | 4.0 | 0.00 | 0.06 | 0.00 | 86 | 1013.1 |
| 20260502035535 | 46 | 239 | 1.0 | 4.0 | 0.00 | 0.06 | 0.06 | 85 | 1013.2 |
| 20260502035034 | 46 | 251 | 0.0 | 4.0 | 0.00 | 0.06 | 0.06 | 85 | 1013.2 |
| 20260502034535 | 46 | 218 | 1.0 | 4.0 | 0.00 | 0.06 | 0.06 | 85 | 1013.2 |
| 20260502034035 | 46 | 206 | 0.0 | 5.0 | 0.00 | 0.06 | 0.06 | 85 | 1013.2 |
| 20260502033538 | 46 | 206 | 2.0 | 5.0 | 0.00 | 0.06 | 0.06 | 85 | 1013.1 |
| 20260502033045 | 46 | 237 | 1.0 | 7.0 | 0.00 | 0.06 | 0.06 | 85 | 1013.0 |
| 20260502032536 | 46 | 259 | 1.0 | 4.0 | 0.00 | 0.06 | 0.06 | 84 | 1013.0 |
| 20260502032033 | 46 | 252 | 2.0 | 5.0 | 0.00 | 0.06 | 0.06 | 84 | 1013.1 |
| 20260502031533 | 46 | 259 | 0.0 | 6.0 | 0.00 | 0.06 | 0.06 | 84 | 1013.2 |
| 20260502031034 | 46 | 261 | 1.0 | 4.0 | 0.00 | 0.06 | 0.06 | 83 | 1013.2 |
| 20260502030533 | 46 | 231 | 0.0 | 0.0 | 0.00 | 0.06 | 0.06 | 83 | 1013.2 |
| 20260502030033 | 46 | 231 | 0.0 | 0.0 | 0.01 | 0.06 | 0.06 | 83 | 1013.2 |
| 20260502025533 | 46 | 231 | 0.0 | 0.0 | 0.01 | 0.06 | 0.06 | 83 | 1013.2 |
| 20260502025033 | 46 | 231 | 0.0 | 0.0 | 0.01 | 0.06 | 0.06 | 83 | 1013.1 |
| 20260502024534 | 46 | 231 | 0.0 | 0.0 | 0.02 | 0.06 | 0.06 | 83 | 1013.2 |
| 20260502024032 | 46 | 231 | 0.0 | 0.0 | 0.02 | 0.06 | 0.06 | 82 | 1013.1 |
| 20260502023533 | 46 | 231 | 0.0 | 0.0 | 0.02 | 0.06 | 0.06 | 82 | 1013.1 |
| 20260502023032 | 46 | 231 | 0.0 | 0.0 | 0.02 | 0.06 | 0.06 | 82 | 1013.1 |
| 20260502022535 | 47 | 231 | 0.0 | 0.0 | 0.02 | 0.06 | 0.06 | 82 | 1013.2 |
| 20260502022034 | 47 | 231 | 0.0 | 0.0 | 0.02 | 0.06 | 0.06 | 82 | 1013.2 |
| 20260502021532 | 47 | 231 | 0.0 | 0.0 | 0.02 | 0.06 | 0.06 | 82 | 1013.2 |
| 20260502021031 | 47 | 231 | 0.0 | 0.0 | 0.02 | 0.06 | 0.06 | 82 | 1013.2 |
| 20260502020531 | 47 | 231 | 0.0 | 0.0 | 0.02 | 0.06 | 0.06 | 82 | 1013.2 |
| 20260502020031 | 47 | 231 | 0.0 | 0.0 | 0.01 | 0.05 | 0.05 | 81 | 1013.2 |
| 20260502015531 | 47 | 231 | 0.0 | 0.0 | 0.01 | 0.05 | 0.05 | 81 | 1013.2 |
| 20260502015031 | 47 | 231 | 0.0 | 0.0 | 0.01 | 0.05 | 0.05 | 81 | 1013.2 |
| 20260502014533 | 47 | 231 | 0.0 | 0.0 | 0.00 | 0.04 | 0.04 | 81 | 1013.1 |
| 20260502014030 | 47 | 231 | 0.0 | 0.0 | 0.01 | 0.04 | 0.04 | 81 | 1013.0 |
| 20260502013530 | 47 | 231 | 0.0 | 0.0 | 0.01 | 0.04 | 0.04 | 80 | 1013.0 |
| 20260502013031 | 47 | 231 | 0.0 | 0.0 | 0.01 | 0.04 | 0.04 | 80 | 1013.0 |
| 20260502012529 | 47 | 231 | 0.0 | 0.0 | 0.01 | 0.04 | 0.04 | 80 | 1013.0 |
| 20260502012029 | 47 | 231 | 0.0 | 0.0 | 0.01 | 0.04 | 0.04 | 80 | 1013.1 |
| 20260502011529 | 47 | 231 | 0.0 | 0.0 | 0.01 | 0.04 | 0.04 | 79 | 1013.1 |
| 20260502011029 | 47 | 231 | 0.0 | 0.0 | 0.01 | 0.04 | 0.04 | 79 | 1013.0 |
| 20260502010528 | 47 | 231 | 0.0 | 0.0 | 0.01 | 0.04 | 0.04 | 79 | 1013.0 |
| 20260502010028 | 47 | 231 | 0.0 | 0.0 | 0.01 | 0.04 | 0.04 | 79 | 1013.0 |
| 20260502005528 | 47 | 231 | 0.0 | 0.0 | 0.01 | 0.04 | 0.04 | 78 | 1013.0 |
| 20260502005029 | 47 | 231 | 0.0 | 0.0 | 0.01 | 0.04 | 0.04 | 78 | 1013.0 |
| 20260502004528 | 48 | 231 | 0.0 | 0.0 | 0.01 | 0.03 | 0.03 | 78 | 1013.0 |
| 20260502004029 | 48 | 231 | 0.0 | 0.0 | 0.01 | 0.03 | 0.03 | 77 | 1013.0 |
| 20260502003527 | 48 | 231 | 0.0 | 0.0 | 0.01 | 0.03 | 0.03 | 77 | 1012.9 |
| 20260502003028 | 48 | 231 | 0.0 | 0.0 | 0.01 | 0.03 | 0.03 | 77 | 1012.9 |
| 20260502002532 | 48 | 231 | 0.0 | 0.0 | 0.01 | 0.03 | 0.03 | 76 | 1012.9 |
| 20260502002027 | 48 | 231 | 0.0 | 0.0 | 0.01 | 0.03 | 0.03 | 76 | 1012.9 |
| 20260502001528 | 48 | 231 | 0.0 | 0.0 | 0.02 | 0.03 | 0.03 | 75 | 1012.8 |
| 20260502001028 | 49 | 231 | 0.0 | 0.0 | 0.02 | 0.03 | 0.03 | 75 | 1012.8 |
| 20260502000527 | 49 | 231 | 0.0 | 0.0 | 0.03 | 0.03 | 0.03 | 74 | 1012.8 |
| 20260502000027 | 49 | 231 | 0.0 | 0.0 | 0.03 | 0.03 | 0.03 | 73 | 1012.8 |
| 20260501235527 | 49 | 231 | 0.0 | 0.0 | 0.03 | 0.03 | 0.03 | 72 | 1012.7 |
| 20260501235026 | 49 | 231 | 0.0 | 0.0 | 0.02 | 0.02 | 0.02 | 71 | 1012.8 |
| 20260501234526 | 50 | 231 | 0.0 | 0.0 | 0.02 | 0.02 | 0.02 | 71 | 1012.7 |
| 20260501234026 | 50 | 231 | 0.0 | 0.0 | 0.02 | 0.02 | 0.02 | 70 | 1012.7 |
| 20260501233526 | 50 | 231 | 0.0 | 0.0 | 0.02 | 0.02 | 0.02 | 70 | 1012.6 |
| 20260501233026 | 50 | 231 | 0.0 | 0.0 | 0.02 | 0.02 | 0.02 | 69 | 1012.7 |
| 20260501232527 | 50 | 231 | 0.0 | 0.0 | 0.02 | 0.02 | 0.02 | 69 | 1012.7 |
| 20260501232028 | 51 | 231 | 0.0 | 0.0 | 0.02 | 0.02 | 0.02 | 69 | 1012.6 |
| 20260501231536 | 51 | 232 | 0.0 | 0.0 | 0.01 | 0.01 | 0.01 | 68 | 1012.6 |
| 20260501231026 | 51 | 232 | 0.0 | 0.0 | 0.01 | 0.01 | 0.01 | 67 | 1012.7 |
| 20260501230528 | 51 | 232 | 0.0 | 3.0 | 0.00 | 0.00 | 0.00 | 67 | 1012.6 |
| 20260501230025 | 51 | 232 | 1.0 | 3.0 | 0.00 | 0.00 | 0.00 | 66 | 1012.7 |
| 20260501225525 | 52 | 263 | 0.0 | 5.0 | 0.00 | 0.00 | 0.00 | 66 | 1012.6 |
| 20260501225028 | 52 | 269 | 2.0 | 12.0 | 0.00 | 0.00 | 0.00 | 64 | 1012.6 |
| 20260501224525 | 52 | 292 | 5.0 | 12.0 | 0.00 | 0.00 | 0.00 | 63 | 1012.4 |
| 20260501224025 | 52 | 242 | 3.0 | 9.0 | 0.00 | 0.00 | 0.00 | 61 | 1012.4 |
| 20260501223524 | 53 | 242 | 5.0 | 10.0 | 0.00 | 0.00 | 0.00 | 60 | 1012.3 |
| 20260501223035 | 53 | 244 | 2.0 | 10.0 | 0.00 | 0.00 | 0.00 | 59 | 1012.2 |
| 20260501222523 | 53 | 242 | 2.0 | 8.0 | 0.00 | 0.00 | 0.00 | 59 | 1012.1 |
| 20260501222023 | 53 | 277 | 1.0 | 8.0 | 0.00 | 0.00 | 0.00 | 58 | 1012.1 |
| 20260501221525 | 54 | 281 | 2.0 | 6.0 | 0.00 | 0.00 | 0.00 | 57 | 1012.1 |
| 20260501221022 | 54 | 254 | 2.0 | 5.0 | 0.00 | 0.00 | 0.00 | 56 | 1012.1 |
| 20260501220522 | 54 | 260 | 1.0 | 6.0 | 0.00 | 0.00 | 0.00 | 55 | 1012.1 |
| 20260501220022 | 54 | 260 | 1.0 | 6.0 | 0.00 | 0.00 | 0.00 | 55 | 1012.1 |
| 20260501215523 | 54 | 250 | 1.0 | 7.0 | 0.00 | 0.00 | 0.00 | 55 | 1012.1 |
| 20260501215025 | 54 | 312 | 2.0 | 7.0 | 0.00 | 0.00 | 0.00 | 55 | 1012.0 |
| 20260501214522 | 54 | 275 | 2.0 | 8.0 | 0.00 | 0.00 | 0.00 | 55 | 1012.1 |
| 20260501214022 | 55 | 270 | 3.0 | 8.0 | 0.00 | 0.00 | 0.00 | 53 | 1012.1 |
| 20260501213522 | 55 | 290 | 3.0 | 9.0 | 0.00 | 0.00 | 0.00 | 53 | 1012.2 |
| 20260501213022 | 55 | 250 | 5.0 | 9.0 | 0.00 | 0.00 | 0.00 | 52 | 1012.1 |
| 20260501212522 | 55 | 219 | 2.0 | 7.0 | 0.00 | 0.00 | 0.00 | 53 | 1012.1 |
| 20260501212021 | 55 | 265 | 2.0 | 8.0 | 0.00 | 0.00 | 0.00 | 52 | 1012.0 |
| 20260501211521 | 55 | 307 | 2.0 | 10.0 | 0.00 | 0.00 | 0.00 | 52 | 1012.0 |
| 20260501211021 | 55 | 293 | 2.0 | 4.0 | 0.00 | 0.00 | 0.00 | 53 | 1012.0 |
| 20260501210519 | 55 | 292 | 1.0 | 4.0 | 0.00 | 0.00 | 0.00 | 53 | 1012.0 |
| 20260501210020 | 54 | 323 | 1.0 | 4.0 | 0.00 | 0.00 | 0.00 | 53 | 1012.1 |
| 20260501205519 | 54 | 306 | 0.0 | 4.0 | 0.00 | 0.00 | 0.00 | 53 | 1012.1 |
| 20260501205020 | 54 | 246 | 1.0 | 4.0 | 0.00 | 0.00 | 0.00 | 52 | 1012.1 |
| 20260501204524 | 54 | 236 | 1.0 | 7.0 | 0.00 | 0.00 | 0.00 | 51 | 1012.2 |
| 20260501204019 | 54 | 213 | 4.0 | 7.0 | 0.00 | 0.00 | 0.00 | 53 | 1012.3 |
| 20260501203519 | 54 | 266 | 1.0 | 6.0 | 0.00 | 0.00 | 0.00 | 52 | 1012.3 |
| 20260501203019 | 54 | 273 | 0.0 | 4.0 | 0.00 | 0.00 | 0.00 | 54 | 1012.1 |
| 20260501202518 | 54 | 276 | 0.0 | 4.0 | 0.00 | 0.00 | 0.00 | 53 | 1012.1 |
| 20260501202018 | 54 | 34 | 0.0 | 4.0 | 0.00 | 0.00 | 0.00 | 52 | 1012.2 |
| 20260501201519 | 54 | 40 | 0.0 | 4.0 | 0.00 | 0.00 | 0.00 | 52 | 1012.0 |
| 20260501201017 | 54 | 329 | 0.0 | 7.0 | 0.00 | 0.00 | 0.00 | 52 | 1012.1 |
| 20260501200516 | 54 | 280 | 2.0 | 7.0 | 0.00 | 0.00 | 0.00 | 52 | 1012.2 |
| 20260501200016 | 54 | 279 | 0.0 | 3.0 | 0.00 | 0.00 | 0.00 | 52 | 1012.2 |
| 20260501195516 | 54 | 279 | 0.0 | 4.0 | 0.00 | 0.00 | 0.00 | 53 | 1012.3 |
| 20260501195016 | 54 | 271 | 2.0 | 5.0 | 0.00 | 0.00 | 0.00 | 52 | 1012.3 |
| 20260501194516 | 54 | 331 | 1.0 | 5.0 | 0.00 | 0.00 | 0.00 | 52 | 1012.3 |
| 20260501194018 | 54 | 298 | 1.0 | 5.0 | 0.00 | 0.00 | 0.00 | 53 | 1012.3 |
| 20260501193516 | 54 | 334 | 2.0 | 5.0 | 0.00 | 0.00 | 0.00 | 53 | 1012.3 |
| 20260501193015 | 54 | 291 | 2.0 | 4.0 | 0.00 | 0.00 | 0.00 | 52 | 1012.3 |
| 20260501192515 | 54 | 311 | 0.0 | 4.0 | 0.00 | 0.00 | 0.00 | 53 | 1012.3 |
| 20260501192015 | 55 | 73 | 1.0 | 5.0 | 0.00 | 0.00 | 0.00 | 51 | 1012.3 |
| 20260501191514 | 55 | 302 | 2.0 | 5.0 | 0.00 | 0.00 | 0.00 | 51 | 1012.4 |
| 20260501191015 | 55 | 252 | 0.0 | 6.0 | 0.00 | 0.00 | 0.00 | 53 | 1012.4 |
| 20260501190515 | 55 | 274 | 1.0 | 6.0 | 0.00 | 0.00 | 0.00 | 52 | 1012.4 |
| 20260501190015 | 55 | 298 | 1.0 | 5.0 | 0.00 | 0.00 | 0.00 | 52 | 1012.5 |
| 20260501185513 | 55 | 240 | 1.0 | 12.0 | 0.00 | 0.00 | 0.00 | 50 | 1012.6 |
| 20260501185016 | 55 | 196 | 6.0 | 12.0 | 0.00 | 0.00 | 0.00 | 49 | 1012.7 |
| 20260501184514 | 56 | 253 | 4.0 | 11.0 | 0.00 | 0.00 | 0.00 | 46 | 1012.7 |
| 20260501184014 | 56 | 291 | 4.0 | 11.0 | 0.00 | 0.00 | 0.00 | 43 | 1012.6 |
| 20260501183518 | 57 | 266 | 5.0 | 9.0 | 0.00 | 0.00 | 0.00 | 41 | 1012.4 |
| 20260501183014 | 57 | 215 | 3.0 | 8.0 | 0.00 | 0.00 | 0.00 | 42 | 1012.4 |
| 20260501182512 | 57 | 238 | 5.0 | 9.0 | 0.00 | 0.00 | 0.00 | 41 | 1012.3 |
| 20260501182012 | 58 | 251 | 5.0 | 9.0 | 0.00 | 0.00 | 0.00 | 41 | 1012.4 |
| 20260501181514 | 58 | 265 | 2.0 | 8.0 | 0.00 | 0.00 | 0.00 | 42 | 1012.3 |
| 20260501181012 | 58 | 267 | 3.0 | 12.0 | 0.00 | 0.00 | 0.00 | 41 | 1012.3 |
| 20260501180613 | 58 | 265 | 5.0 | 12.0 | 0.00 | 0.00 | 0.00 | 41 | 1012.4 |
| 20260501180012 | 57 | 306 | 1.0 | 8.0 | 0.00 | 0.00 | 0.00 | 43 | 1012.4 |
| 20260501175511 | 57 | 270 | 4.0 | 9.0 | 0.00 | 0.00 | 0.00 | 41 | 1012.3 |
| 20260501175018 | 58 | 283 | 3.0 | 7.0 | 0.00 | 0.00 | 0.00 | 42 | 1012.4 |
| 20260501174511 | 58 | 267 | 1.0 | 7.0 | 0.00 | 0.00 | 0.00 | 40 | 1012.5 |
| 20260501174010 | 58 | 161 | 0.0 | 3.0 | 0.00 | 0.00 | 0.00 | 41 | 1012.5 |
| 20260501173510 | 59 | 351 | 0.0 | 6.0 | 0.00 | 0.00 | 0.00 | 43 | 1012.5 |
| 20260501173010 | 59 | 213 | 1.0 | 9.0 | 0.00 | 0.00 | 0.00 | 42 | 1012.5 |
| 20260501172509 | 60 | 210 | 3.0 | 9.0 | 0.00 | 0.00 | 0.00 | 41 | 1012.6 |
| 20260501172008 | 60 | 234 | 4.0 | 9.0 | 0.00 | 0.00 | 0.00 | 43 | 1012.5 |
| 20260501171506 | 59 | 222 | 3.0 | 10.0 | 0.00 | 0.00 | 0.00 | 43 | 1012.5 |
| 20260501171005 | 59 | 313 | 2.0 | 10.0 | 0.00 | 0.00 | 0.00 | 43 | 1012.6 |
| 20260501170504 | 59 | 223 | 3.0 | 8.0 | 0.00 | 0.00 | 0.00 | 45 | 1012.7 |
| 20260501170004 | 58 | 290 | 3.0 | 5.0 | 0.00 | 0.00 | 0.00 | 45 | 1012.8 |
| 20260501165510 | 58 | 330 | 0.0 | 5.0 | 0.00 | 0.00 | 0.00 | 43 | 1012.8 |
| 20260501165004 | 58 | 224 | 2.0 | 11.0 | 0.00 | 0.00 | 0.00 | 42 | 1012.9 |
| 20260501164502 | 58 | 305 | 3.0 | 11.0 | 0.00 | 0.00 | 0.00 | 43 | 1013.0 |
| 20260501164003 | 58 | 223 | 5.0 | 9.0 | 0.00 | 0.00 | 0.00 | 44 | 1013.0 |
| 20260501163501 | 58 | 270 | 2.0 | 8.0 | 0.00 | 0.00 | 0.00 | 48 | 1013.1 |
| 20260501163101 | 58 | 284 | 2.0 | 7.0 | 0.00 | 0.00 | 0.00 | 49 | 1013.1 |
| 20260501162558 | 57 | 328 | 1.0 | 9.0 | 0.00 | 0.00 | 0.00 | 49 | 1013.1 |
| 20260501162059 | 57 | 275 | 5.0 | 10.0 | 0.00 | 0.00 | 0.00 | 47 | 1013.2 |